SCP
2 2 2 1 1 1 1 1 1 1 1 1 1 0 0 1 1 1 0 0 0 0 0 1 0 0 0 1 1 1 1 1 1 1 1 0 0 0 0 0 0 0 0
2 2 2 1 1 1 1 1 1 1 1 1 1 0 0 1 1 1 1 0 0 0 0 0 0 0 0 1 1 1 1 1 1 1 1 1 1 0 0 0 0 0 0
2 2 2 1 1 1 1 1 1 1 1 1 0 0 0 0 1 1 1 1 0 0 0 0 0 0 0 0 1 1 1 1 1 1 1 1 1 1 0 0 0 0 0
2 2 2 2 1 1 1 1 1 1 1 1 0 0 0 0 1 1 1 1 1 1 0 0 0 0 0 0 1 1 1 1 1 1 1 1 1 1 1 0 0 0 0
2 2 2 2 1 1 1 1 1 1 0 0 0 0 0 0 1 1 1 1 1 1 0 0 0 0 0 0 0 1 1 1 1 1 1 1 1 1 1 1 0 0 0
1 2 2 2 1 1 1 1 0 1 1 0 0 0 0 0 0 1 1 1 1 1 1 0 0 0 0 0 0 1 1 1 1 1 1 1 1 1 1 1 0 0 0
1 2 2 2 1 1 1 0 0 1 1 1 0 0 0 0 0 0 0 1 1 1 1 0 0 0 0 0 0 0 1 1 1 1 1 1 1 1 1 1 0 0 0
1 1 2 2 1 1 1 0 0 0 1 0 0 0 0 0 0 0 0 0 1 1 1 1 0 0 0 0 0 0 0 1 1 1 1 1 1 1 1 1 1 0 0
1 1 2 1 1 1 1 0 0 0 0 0 0 0 0 0 0 0 0 0 1 1 1 1 0 0 0 0 0 0 0 0 1 1 1 1 1 1 1 1 1 0 0
1 1 1 1 1 1 1 0 0 0 0 0 0 0 0 0 0 0 0 0 1 1 1 1 0 0 0 0 0 0 0 0 1 1 1 1 1 1 1 1 1 0 0
1 1 1 1 1 1 1 1 0 0 0 0 0 0 0 0 0 0 0 0 0 1 1 1 1 0 0 0 0 0 0 0 1 1 1 1 1 1 1 1 1 1 0
1 1 1 1 1 1 1 1 1 0 0 0 0 0 0 0 0 0 0 0 0 0 0 1 1 0 0 0 0 0 0 0 0 1 1 1 1 1 1 1 1 1 1
1 1 1 1 1 1 1 1 1 0 0 0 0 0 0 0 0 0 0 0 0 0 0 0 0 1 0 0 0 0 0 0 0 1 1 1 1 1 1 1 1 1 0
1 0 0 0 0 0 1 1 0 0 0 0 0 0 0 0 0 0 0 0 0 0 0 0 0 1 1 0 0 0 0 0 0 0 1 1 1 1 1 1 0 0 0
1 0 0 0 0 0 0 0 0 0 0 0 0 0 0 0 0 0 0 0 0 0 0 0 0 0 0 0 0 0 0 0 0 0 0 0 0 0 0 0 0 0 0
1 1 0 0 0 0 0 0 0 0 0 0 0 0 0 0 0 0 0 0 0 0 0 0 0 0 0 0 0 0 0 0 0 0 0 0 0 0 0 0 0 0 0
1 1 0 0 0 0 0 0 0 0 0 0 0 0 0 0 0 0 0 0 0 0 0 0 0 0 0 0 0 0 0 0 0 0 0 0 0 0 0 0 0 0 0
1 0 0 0 0 0 0 0 0 0 0 0 0 0 0 0 0 0 0 0 0 0 0 0 0 0 0 0 0 0 0 0 0 0 0 0 0 0 0 0 0 0 0
0 0 0 0 0 0 0 0 0 0 0 0 0 0 0 0 0 0 0 0 0 0 0 0 0 0 0 0 0 0 0 0 0 0 0 0 0 0 0 0 0 0 0
0 0 0 0 0 0 0 0 0 0 0 0 0 0 0 0 0 0 0 0 0 0 0 0 0 0 0 0 0 0 0 0 0 0 0 0 0 0 0 0 0 0 0
0 0 0 0 0 0 0 0 0 0 0 0 0 0 0 0 0 0 0 0 0 0 0 0 0 0 0 0 0 0 0 0 0 0 0 0 0 0 0 0 0 0 0
0 0 0 0 0 0 0 0 0 0 0 0 0 0 0 0 0 0 0 0 0 0 0 0 0 0 0 0 0 0 0 0 0 0 0 0 0 0 0 0 0 0 0
0 0 0 0 0 0 0 0 0 0 0 0 0 0 0 0 0 0 0 0 0 0 0 0 0 0 0 0 0 0 0 0 0 0 0 0 0 0 0 0 0 0 0
0 0 0 0 0 0 0 0 0 0 0 0 0 0 0 0 0 0 0 0 0 0 0 0 0 0 0 0 0 0 0 0 0 0 0 0 0 0 0 0 0 0 0
0 0 0 0 0 0 0 0 0 0 0 0 0 0 0 0 0 0 0 0 0 0 0 0 0 0 0 0 0 0 0 0 0 0 0 0 0 0 0 0 0 0 0
0 0 0 0 0 0 0 0 0 0 0 0 0 0 0 0 0 0 0 0 0 0 0 0 0 0 0 0 0 0 0 0 0 0 0 0 0 0 0 0 0 0 0
Wind_Speed
4 3 3 4 4 4 4 4 4 4 4 4 4 4 4 4 4 4 4 7 6 6 7 8 8 8 8 7 8 8 8 8 8 8 8 8 8 8 8 8 9 9 9
3 4 4 3 3 3 4 4 5 4 4 3 4 4 3 3 3 3 3 5 6 6 6 6 7 7 7 7 7 7 8 8 7 7 7 7 7 7 7 7 8 8 8
3 4 4 3 3 3 4 3 4 4 3 3 3 3 3 3 3 3 3 3 3 5 5 6 6 6 6 7 6 6 6 6 6 6 6 6 6 6 7 6 6 7 7
3 4 3 3 3 3 3 3 3 4 3 3 3 2 2 2 2 3 2 3 2 3 4 5 5 5 5 5 5 4 5 5 5 4 4 4 4 4 4 5 5 5 5
3 3 3 3 3 3 3 3 3 3 4 3 2 2 1 1 2 2 3 3 2 2 2 4 4 3 3 3 3 3 3 3 3 3 2 2 2 2 3 3 3 3 4
3 3 2 3 4 3 3 3 4 3 3 3 3 2 1 1 1 2 2 2 2 2 2 2 2 2 2 1 1 1 2 2 2 2 2 1 1 1 1 1 2 2 2
3 3 2 3 3 3 3 4 4 4 3 3 3 2 1 1 1 1 1 2 2 2 2 2 1 1 1 2 1 1 1 1 2 2 2 2 2 2 1 0 1 1 1
3 3 3 2 3 3 4 4 3 3 3 3 2 3 2 2 2 1 1 2 2 2 2 2 2 2 2 1 1 0 1 2 3 4 3 2 3 3 2 2 1 1 0
3 3 3 2 3 3 3 4 4 3 3 3 2 2 2 2 2 2 2 2 2 2 2 2 2 2 2 2 2 1 2 3 4 4 4 4 3 4 4 3 3 2 2
3 3 3 3 2 2 3 4 3 3 3 3 3 1 1 0 2 2 2 3 2 2 2 2 2 2 3 2 2 2 2 3 4 5 4 5 5 5 5 5 4 4 3
2 2 2 2 2 2 3 3 3 3 3 3 3 2 2 2 2 2 2 2 2 2 2 2 2 2 3 3 2 2 2 3 5 5 5 6 5 5 5 6 5 4 4
1 1 1 1 2 2 2 3 3 3 3 3 3 3 2 2 3 3 3 3 2 2 2 2 2 2 2 2 2 2 2 3 4 5 6 6 5 5 5 6 6 5 4
0 1 1 2 2 2 2 3 3 3 3 4 3 3 3 2 2 2 2 2 2 1 2 2 2 2 2 2 2 2 3 3 3 4 5 5 5 5 5 5 6 5 5
1 1 2 2 2 2 2 2 2 3 3 3 4 4 3 3 2 3 2 2 2 2 3 3 2 2 2 2 1 3 3 2 3 3 4 4 4 4 4 4 4 4 4
1 1 2 2 2 2 2 2 2 3 3 3 3 4 3 2 3 3 2 3 3 4 4 2 1 1 2 2 2 3 3 2 2 3 3 3 3 3 3 4 4 4 4
1 2 2 2 2 2 2 3 3 3 3 3 2 3 3 2 2 2 3 3 3 3 3 2 1 1 2 2 2 3 3 2 3 3 3 2 2 2 2 3 4 4 4
2 2 2 2 2 2 3 3 3 4 4 3 3 3 3 3 3 3 2 3 3 3 4 3 2 2 3 3 2 3 3 3 3 3 3 3 2 2 2 3 3 3 4
3 3 2 3 2 2 3 3 4 4 5 4 4 4 4 3 4 3 3 4 3 4 4 4 3 2 3 3 3 3 3 3 3 2 4 3 3 3 3 3 3 4 4
3 2 2 3 3 3 4 4 4 5 5 5 5 5 5 4 4 3 4 4 3 3 3 3 3 2 2 2 3 3 3 3 3 2 4 4 4 3 3 3 4 4 4
3 2 3 3 3 4 4 4 4 5 5 5 5 5 5 5 5 4 4 4 3 3 3 3 3 2 2 2 2 2 3 2 2 2 3 3 3 4 5 4 4 4 4
3 3 3 3 3 3 4 4 4 4 5 5 5 5 5 5 5 4 3 4 4 3 3 3 3 2 2 2 3 2 3 3 3 2 3 3 3 3 3 4 4 4 4
3 3 3 3 4 3 4 5 5 4 5 5 5 5 4 5 5 5 5 5 5 5 5 4 3 4 4 4 3 3 2 3 3 1 3 3 2 3 3 3 4 4 5
3 3 3 3 4 4 5 5 5 5 5 5 5 5 4 4 5 5 5 4 4 5 6 5 5 5 5 4 4 4 4 4 3 2 3 4 3 4 3 3 4 5 6
3 3 4 4 4 4 5 5 6 5 5 5 5 5 5 5 5 5 4 4 4 4 4 4 5 5 4 4 4 5 4 3 3 2 3 4 3 4 3 4 5 6 6
3 3 4 4 4 4 5 5 5 4 4 5 5 5 5 5 6 6 5 5 4 3 3 3 4 4 4 4 4 2 2 3 3 3 2 3 3 3 4 4 4 5 6
3 3 3 4 4 4 4 5 5 3 4 4 4 4 6 6 6 7 6 5 6 5 3 2 2 3 3 3 4 4 3 3 3 3 2 2 2 2 3 2 2 3 3
Wind_Direction
140 138 141 143 141 137 141 139 136 130 128 128 125 125 121 113 107 106 99 81 82 96 106 108 110 109 105 102 99 95 90 86 82 78 76 74 73 72 72 69 66 65 63
137 137 134 136 135 140 144 144 139 136 133 129 126 125 122 118 111 111 110 102 79 77 94 106 108 113 111 108 105 100 96 91 84 80 76 77 75 73 74 72 67 63 62
140 139 136 135 132 132 134 136 136 134 126 125 124 118 120 124 125 123 123 129 121 88 80 96 103 107 106 106 104 105 102 99 91 84 78 76 74 74 71 72 69 63 59
136 141 141 136 132 135 137 138 139 138 136 132 127 120 120 139 148 135 130 130 132 129 107 89 91 99 98 101 103 108 111 107 101 93 85 77 73 73 72 70 71 63 59
129 137 142 133 134 137 143 145 147 146 142 135 126 122 118 136 154 152 142 131 123 130 132 112 99 87 91 98 96 114 125 126 118 112 104 91 80 74 74 76 84 75 66
125 126 133 137 138 139 142 150 148 144 146 142 134 125 117 134 168 161 157 145 140 144 149 150 154 127 114 111 103 119 144 149 153 160 155 148 143 120 80 95 108 95 75
123 127 126 147 150 155 156 157 150 149 149 150 144 125 113 146 182 175 175 169 157 162 170 179 183 196 156 144 163 197 218 205 199 192 195 195 201 205 211 170 148 138 98
136 140 139 146 158 158 154 156 153 158 158 171 167 158 171 181 180 186 198 199 195 183 186 207 205 212 216 209 121 189 263 255 231 220 220 218 217 221 220 211 188 164 108
144 142 148 150 164 168 168 169 172 175 175 182 196 203 193 196 166 187 206 213 215 206 203 209 226 225 226 228 221 200 266 273 256 242 234 224 222 234 241 226 229 225 229
144 148 151 157 164 175 174 180 185 193 183 190 190 230 264 175 203 186 193 208 214 224 222 219 231 233 230 227 232 276 281 270 261 257 244 236 234 242 242 237 235 235 235
140 142 152 163 173 182 182 188 194 197 196 202 196 188 193 200 223 228 210 206 221 225 235 236 236 238 234 228 230 253 267 259 259 258 249 248 247 245 250 247 242 242 237
145 145 148 170 197 194 192 197 202 206 207 211 209 205 200 201 207 223 228 220 231 229 241 237 236 237 240 239 239 287 273 267 267 259 254 253 254 257 265 261 247 240 241
266 218 213 204 212 213 206 203 207 212 210 211 216 218 221 225 214 231 227 224 240 249 238 233 230 237 239 243 238 263 256 271 279 271 260 259 266 269 275 271 254 244 247
245 243 237 221 215 213 218 209 207 212 216 215 221 225 220 217 211 218 221 214 227 235 231 229 227 239 233 238 270 254 241 259 274 274 267 271 279 282 285 276 266 262 258
244 234 237 229 216 215 221 213 209 213 217 221 224 228 223 218 218 220 223 228 231 233 236 228 224 239 249 235 245 241 240 242 264 278 275 273 278 277 278 276 273 273 268
253 234 230 227 217 222 225 219 211 214 212 220 226 230 230 224 224 216 219 230 243 242 240 237 248 281 273 257 242 242 237 243 246 269 285 280 266 270 283 291 288 281 270
249 235 229 231 221 222 228 226 215 214 219 220 222 226 236 231 227 220 220 223 231 237 241 250 262 275 263 263 244 240 237 240 232 244 266 271 265 262 270 284 289 296 285
248 240 230 228 225 226 232 234 226 220 220 221 222 224 230 231 227 225 219 223 228 236 241 246 257 259 260 264 265 251 244 242 246 241 251 254 260 262 261 267 281 291 295
256 252 244 239 233 230 232 234 231 225 224 225 224 225 227 226 227 226 226 227 228 230 232 234 244 257 259 257 262 269 259 246 252 250 240 237 246 252 253 261 270 276 278
253 247 245 246 242 237 235 235 236 232 226 225 226 226 227 227 232 226 230 229 225 224 225 227 231 240 252 252 256 257 260 252 256 262 245 244 244 245 244 253 260 265 266
259 251 244 248 249 244 239 239 234 237 228 225 226 228 229 229 242 246 241 235 226 224 222 226 231 235 238 235 239 252 264 264 263 264 261 252 252 252 246 242 249 262 266
264 258 247 242 245 246 250 249 244 238 232 226 227 229 229 226 230 240 246 244 238 231 225 226 234 236 242 248 246 248 259 266 258 238 275 272 265 261 262 260 262 262 262
274 264 257 249 248 247 246 246 245 244 238 230 226 226 229 230 229 231 232 230 237 246 240 235 236 242 245 247 245 248 247 257 266 280 272 268 268 267 274 267 259 253 257
281 273 263 255 253 250 247 247 245 244 241 235 232 229 227 228 226 223 225 224 232 240 238 234 239 245 250 250 241 248 256 269 283 266 270 267 271 276 283 271 248 253 261
284 281 274 261 254 253 248 249 248 239 238 238 234 233 230 227 223 222 226 227 231 241 247 241 248 253 258 254 245 237 236 245 264 256 257 264 272 289 284 272 255 247 262
282 287 283 276 265 257 249 248 250 237 236 236 230 230 232 231 222 224 227 228 229 234 229 230 237 237 242 236 236 234 231 237 260 257 232 247 260 293 286 273 287 283 268